DW3200 Weather Reports


time (UTC)temp
F
wind
direction
speed
knots
gust
knots
rain 1hr
in
rain 24hr
in
rain mn
in
humidity
%
barometer
mb
20260906173046 64 278 0.0 0.0 0.00 0.00 0.00 60 1011.2
20260906171543 64 278 0.0 0.0 0.00 0.00 0.00 61 1011.4
20260906170024 62 279 0.9 0.0 0.00 0.00 0.00 63 1011.5
20260906164535 61 281 0.0 0.0 0.00 0.00 0.00 65 1011.9
20260906163001 60 290 0.0 0.0 0.00 0.00 0.00 67 1011.8
20260906161603 59 290 0.0 0.0 0.00 0.00 0.00 75 1012.1
20260906160048 56 290 0.0 0.0 0.00 0.00 0.00 86 1012.2
20260906154534 53 290 0.0 0.0 0.00 0.00 0.00 90 1012.5
20260906153010 51 290 0.0 0.0 0.00 0.00 0.00 92 1012.7
20260906151506 48 290 0.0 0.0 0.00 0.00 0.00 92 1012.8
20260906150057 46 290 0.0 0.0 0.00 0.00 0.00 92 1012.8
20260906144557 44 290 0.0 0.0 0.00 0.00 0.00 92 1012.8
20260906143031 43 290 0.0 0.0 0.00 0.00 0.00 93 1012.8
20260906141532 41 290 0.0 0.0 0.00 0.00 0.00 92 1012.9
20260906140108 40 290 0.0 0.0 0.00 0.00 0.00 91 1013.0
20260906134601 39 290 0.0 0.0 0.00 0.00 0.00 91 1013.0
20260906133040 40 290 0.0 0.0 0.00 0.00 0.00 91 1012.9
20260906131541 40 290 0.0 0.0 0.00 0.00 0.00 91 1013.0
20260906130035 40 290 0.0 0.0 0.00 0.00 0.00 91 1013.0
20260906124522 42 290 0.0 0.0 0.00 0.00 0.00 91 1012.9
20260906123002 42 290 0.0 0.0 0.00 0.00 0.00 91 1012.9
20260906121502 42 290 0.0 0.0 0.00 0.00 0.00 91 1012.9
20260906120049 42 290 0.0 0.0 0.00 0.00 0.00 91 1013.0
20260906114543 42 290 0.0 0.0 0.00 0.00 0.00 91 1013.2
20260906113024 42 290 0.0 0.0 0.00 0.00 0.00 90 1013.3
20260906111523 43 290 0.0 0.0 0.00 0.00 0.00 90 1013.4
20260906110008 44 290 0.0 0.0 0.00 0.00 0.00 90 1013.5
20260906104513 44 290 0.0 0.0 0.00 0.00 0.00 90 1013.5
20260906103046 44 290 0.0 0.0 0.00 0.00 0.00 90 1013.6
20260906101546 44 290 0.0 0.0 0.00 0.00 0.00 89 1013.8
20260906100029 45 290 0.0 0.0 0.00 0.00 0.00 89 1013.8
20260906094540 45 290 0.0 0.0 0.00 0.00 0.00 88 1013.8
20260906093014 46 290 0.0 0.0 0.00 0.00 0.00 88 1014.0
20260906091512 46 290 0.0 0.0 0.00 0.00 0.00 88 1014.1
20260906090012 46 290 0.0 0.0 0.00 0.00 0.00 87 1014.4
20260906084514 47 290 0.0 0.0 0.00 0.00 0.00 87 1014.5
20260906083011 47 290 0.0 0.0 0.00 0.00 0.00 87 1014.4
20260906081534 48 290 0.9 0.0 0.00 0.00 0.00 86 1014.4
20260906080010 48 290 0.0 0.0 0.00 0.00 0.00 86 1014.5
20260906074509 48 290 0.0 0.0 0.00 0.00 0.00 86 1014.3
20260906073008 48 290 0.0 0.0 0.00 0.00 0.00 85 1014.3
20260906071508 49 290 0.0 0.0 0.00 0.00 0.00 85 1015.0
20260906070010 49 290 0.0 0.0 0.00 0.00 0.00 84 1014.5
20260906064510 49 290 0.0 0.0 0.00 0.00 0.00 84 1014.8
20260906063010 49 290 0.0 0.0 0.00 0.00 0.00 83 1014.9
20260906061509 49 290 0.0 0.0 0.00 0.00 0.00 81 1015.2
20260906060050 50 290 0.0 0.0 0.00 0.00 0.00 80 1015.0
20260906054548 50 290 0.0 0.0 0.00 0.00 0.00 80 1015.1
20260906053031 51 290 0.0 0.0 0.00 0.00 0.00 78 1015.1
20260906051531 52 290 0.0 0.0 0.00 0.00 0.00 77 1015.2
20260906050015 52 290 0.0 0.0 0.00 0.00 0.00 75 1015.1
20260906044513 53 290 0.0 0.0 0.00 0.00 0.00 73 1015.1
20260906043057 54 290 0.0 0.0 0.00 0.00 0.00 70 1015.1
20260906041555 55 290 0.0 0.0 0.00 0.00 0.00 68 1015.1
20260906040038 57 290 0.0 0.0 0.00 0.00 0.00 66 1015.2
20260906034543 57 290 0.0 0.0 0.00 0.00 0.00 65 1015.0
20260906033019 58 290 0.0 0.0 0.00 0.00 0.00 63 1015.0
20260906031534 59 290 0.9 0.0 0.00 0.00 0.00 62 1015.0
20260906030002 59 290 3.5 0.0 0.00 0.00 0.00 62 1014.9
20260906024500 60 286 4.3 0.0 0.00 0.00 0.00 61 1014.7
20260906023049 60 286 4.3 0.0 0.00 0.00 0.00 60 1014.6
20260906021549 61 285 6.1 0.0 0.00 0.00 0.00 59 1014.5
20260906020031 62 300 7.8 0.0 0.00 0.00 0.00 57 1014.3
20260906014524 63 284 7.8 0.0 0.00 0.00 0.00 55 1014.2
20260906013006 65 269 7.8 0.0 0.00 0.00 0.00 51 1014.3
20260906011511 67 275 7.8 0.0 0.00 0.00 0.00 45 1014.2
20260906010054 70 281 6.1 0.0 0.00 0.00 0.00 38 1013.8
20260906004550 71 280 4.3 0.0 0.00 0.00 0.00 38 1013.8
20260906003029 72 290 5.2 0.0 0.00 0.00 0.00 35 1013.7
20260906001532 72 293 3.5 0.0 0.00 0.00 0.00 33 1013.7
20260906000011 73 306 2.6 0.0 0.00 0.00 0.00 31 1013.7
20260905234510 73 221 1.7 0.0 0.00 0.00 0.00 32 1013.8
20260905233100 73 294 2.6 0.0 0.00 0.00 0.00 31 1013.9
20260905231549 73 32 0.0 0.0 0.00 0.00 0.00 29 1013.9
20260905230036 72 32 0.9 0.0 0.00 0.00 0.00 29 1014.0
20260905224535 73 21 1.7 0.0 0.00 0.00 0.00 31 1014.1
20260905223038 73 65 0.0 0.0 0.00 0.00 0.00 29 1014.3
20260905221543 72 66 1.7 0.0 0.00 0.00 0.00 29 1014.4
20260905220030 73 47 1.7 0.0 0.00 0.00 0.00 30 1014.6
20260905213027 72 276 1.7 0.0 0.00 0.00 0.00 30 1014.8
20260905211539 71 288 3.5 0.0 0.00 0.00 0.00 30 1015.0
20260905210006 72 304 1.7 0.0 0.00 0.00 0.00 30 1015.2
20260905204502 70 244 0.9 0.0 0.00 0.00 0.00 36 1015.3
20260905203044 69 219 2.6 0.0 0.00 0.00 0.00 37 1015.3
20260905201603 70 78 0.0 0.0 0.00 0.00 0.00 38 1015.6
20260905200042 69 76 0.9 0.0 0.00 0.00 0.00 42 1015.7
20260905194524 68 69 1.7 0.0 0.00 0.00 0.00 46 1016.0
20260905193022 67 355 0.9 0.0 0.00 0.00 0.00 47 1016.1
20260905191519 67 324 0.9 0.0 0.00 0.00 0.00 51 1016.3
20260905190016 65 325 0.9 0.0 0.00 0.00 0.00 55 1016.5
20260905184514 65 322 0.9 0.0 0.00 0.00 0.00 55 1016.6
20260905183012 64 323 0.9 0.0 0.00 0.00 0.00 57 1016.7
20260905181509 64 331 0.0 0.0 0.00 0.00 0.00 55 1016.9
20260905180059 62 332 0.9 0.0 0.00 0.00 0.00 59 1016.9
20260905174559 62 9 0.0 0.0 0.00 0.00 0.00 61 1017.0